HULIANWANG DIGUI 6E

Last updated on Wed Aug 13 2025 00:02:08 GMT+0000 (Coordinated Universal Time)

1 65047U 25162E 25224.23438615 .00000009 00000+0 97382-4 0 9996 2 65047 50.0035 322.4519 0007896 317.5224 42.5070 14.06115697 1826
UTC large
Height (km)
Speed (km/s)
/
Latitude / Longitude
Inclination (degrees)
Orbital Period (minutes)
Azimuth
Elevation
Range (km)
Doppler Factor

Next 0 passes for location: London (51.5072 / 0.1276)

Sorry there are no passes over London.
HULIANWANG DIGUI 6E